Location: Long Geng
(2.6167°N, 114.1333°E)
Time: 05:34:24
(UTC+00:00)

Hubble Space Telescope - Pass Details

Date: 14 May 2021
Orbit: 535 x 539 km, 28.5° (Epoch: 13 June)

Event Time Altitude Azimuth Distance (km) Brightness Sun altitude
Exits shadow 20:26:21 53° 50° (NE) 653 1.4 -25.8°
Drops below altitude 10° 20:29:33 10° 58° (ENE) 1,772 4.4 -25.0°
Sets 20:31:48 0° 59° (ENE) 2,660 5.7 -24.5°
